Location: 22
(39.7117°N, 89.5929°W)
Time: 13:09:18
(UTC-06:00)

Vanguard 1 Rocket - Visible Passes

Search period start: 07 February 2023 00:00
Search period end: 17 February 2023 00:00
Orbit: 651 x 4224 km, 34.3° (Epoch: 07 February)

Date Brightness Start Highest point End Pass type
(mag) Time Alt. Az. Time Alt. Az. Time Alt. Az.
07 Feb 11.9 18:54:12 10° W 19:10:07 25° SW 19:28:22 10° S visible
08 Feb 11.8 17:39:38 10° W 17:56:10 35° SW 18:17:45 10° SSE visible
09 Feb 12.1 18:58:46 10° W 19:11:55 19° SW 19:26:54 10° S visible
10 Feb 12.0 17:43:07 10° W 17:58:07 28° SW 18:17:36 10° S visible
11 Feb 12.3 19:05:21 10° WSW 19:13:53 13° SW 19:23:15 10° SSW visible
12 Feb 12.1 17:47:10 10° W 18:00:10 22° SW 18:16:38 10° S visible
14 Feb 12.3 17:52:25 10° WSW 18:02:20 16° SW 18:14:17 10° SSW visible
16 Feb 12.5 18:03:19 10° SW 18:04:41 10° SW 18:06:04 10° SW visible
